Location: Unspecified
(40.7945°N, 0.0000°E)
Time: 06:01:20
(UTC+00:00)

Explorer 7 - Pass Details

Date: 29 January 2021
Orbit: 484 x 677 km, 50.3° (Epoch: 07 March)

Event Time Altitude Azimuth Distance (km) Brightness Sun altitude
Rises 03:08:31 0° 249° (WSW) 2,537 - -46.1°
Reaches altitude 10° 03:10:42 10° 255° (WSW) 1,662 - -45.7°
Maximum altitude 03:14:21 51° 332° (NNW) 622 - -45.0°
Drops below altitude 10° 03:18:07 10° 49° (NE) 1,713 - -44.3°
Sets 03:20:25 0° 55° (NE) 2,624 - -43.9°
